Torna al catalogo

SL-14 R/B

AttivoPO
NORAD 14700·ROCKET BODY·🇷🇺 Russia

Lanciato Feb 8, 1984 da Plesetsk Cosmodrome

Loading…

Prossimi Passaggi (prossime 24 ore)

TLE

AggiornatoSource: Space-Track

Epoca: Sep 14, 2026, 10:43 UTC

1 14700U 84013B   26257.44668983  .00000328  00000-0  34897-4 0  9996
2 14700  82.5333 238.9873 0018467 349.6311 167.6506 14.85724128280598

Traccia SL-14 R/B in tempo reale con AllMySat

Download on the App Store